Location: Goudex
(43.3760°N, 0.9543°E)
Time: 18:07:25
(UTC+00:00)

Cosmos 1328 Rocket - Pass Details

Date: 20 November 2019
Orbit: 600 x 628 km, 82.5° (Epoch: 14 December)

Event Time Altitude Azimuth Distance (km) Brightness Sun altitude
Exits shadow 05:15:23 16° 340° (NNW) 1,595 5.4 -18.0°
Maximum altitude 05:18:42 57° 266° (W) 715 3.5 -17.4°
Drops below altitude 10° 05:22:53 10° 188° (S) 1,937 6.1 -16.7°
Sets 05:25:06 0° 184° (S) 2,834 7.1 -16.3°
